Weather History for Westfield, MA

Change the Weather History Date:

Friday, December 6, 2013

  Actual Average Record
Temperature  
Mean Temperature 43 °F -  
Max Temperature 52 °F 39 °F 64 °F (2001)
Min Temperature 33 °F 22 °F 5 °F (2002)
Degree Days  
Heating Degree Days 22    
Moisture  
Dew Point 39 °F    
Average Humidity 86    
Maximum Humidity 97    
Minimum Humidity 62    
Precipitation  
Precipitation 0.42 in - - ()
Sea Level Pressure  
Sea Level Pressure 30.01 in    
Wind  
Wind Speed 8 mph (NW)    
Max Wind Speed 16 mph    
Max Gust Speed 24 mph    
Visibility 6 miles    
Events Fog , Rain , Snow    
Averages and records for this station are not official NWS values.
T = Trace of Precipitation, MM = Missing Value Source: NWS Daily Summary

Daily Weather History Graph

Daily Weather History Graph

Search for Another Location

Airport:

Trip Planner

Search our weather history database for the weather conditions in past years. The results will help you decide how hot, cold, wet, or windy it might be!

Date:

Astronomy

Dec. 06, 2013 Rise Set
Actual Time 7:05 AM EST 4:18 PM EST
Civil Twilight 6:33 AM EST 4:50 PM EST
Nautical Twilight 5:58 AM EST 5:25 PM EST
Astronomical Twilight 5:24 AM EST 5:59 PM EST
Moon 10:06 AM EST (12/6) 8:50 PM EST (12/6)
Length of Visible Light 10h 16m
Length of Day
9h 13m
Waxing Crescent, 19% of the Moon is Illuminated
Dec 6
Waxing Crescent
Dec 9
First Quarter
Dec 17
Full
Dec 25
Last Quarter
Jan 1
New

Hourly Weather History & Observations

Time (EST) Temp. Windchill Dew Point Humidity Pressure Visibility Wind Dir Wind Speed Gust Speed Precip Events Conditions
12:03 AM 51.1 °F - 50.0 °F 96% 29.92 in 0.5 mi South 8.1 mph - N/A Fog Fog
12:17 AM 51.1 °F - 50.0 °F 96% 29.92 in 0.2 mi South 4.6 mph - N/A Fog Fog
12:53 AM 52.0 °F - 50.0 °F 93% 29.91 in 0.5 mi South 9.2 mph - N/A Fog Fog
1:29 AM 51.1 °F - 50.0 °F 96% 29.89 in 0.2 mi South 4.6 mph - N/A Fog Fog
1:53 AM 48.0 °F - 46.9 °F 96% 29.90 in 0.2 mi South 4.6 mph - N/A Fog Fog
2:27 AM 52.0 °F - 51.1 °F 97% 29.87 in 0.5 mi South 10.4 mph - N/A Fog Fog
2:44 AM 50.0 °F - 48.9 °F 96% 29.87 in 0.2 mi SW 4.6 mph - N/A Fog Fog
2:53 AM 48.9 °F - 48.0 °F 97% 29.88 in 0.2 mi WNW 4.6 mph - N/A Fog Fog
3:53 AM 50.0 °F - 48.9 °F 96% 29.88 in 0.2 mi South 3.5 mph - 0.00 in Fog Fog
4:48 AM 50.0 °F - 48.2 °F 94% 29.89 in 0.5 mi WNW 16.1 mph 24.2 mph 0.01 in Fog , Rain Light Rain
4:53 AM 50.0 °F - 48.0 °F 93% 29.92 in 1.5 mi WNW 16.1 mph 24.2 mph 0.01 in Rain Light Rain
4:55 AM 50.0 °F - 48.0 °F 93% 29.90 in 4.0 mi WNW 13.8 mph - 0.00 in Rain Light Rain
5:03 AM 50.0 °F - 46.9 °F 89% 29.90 in 10.0 mi WNW 11.5 mph - 0.00 in Rain Light Rain
5:53 AM 46.9 °F - 43.0 °F 86% 29.94 in 10.0 mi North 4.6 mph - 0.01 in Rain Light Rain
6:53 AM 46.9 °F - 43.0 °F 86% 29.96 in 8.0 mi WNW 4.6 mph - 0.00 in Rain Light Rain
7:53 AM 46.0 °F 44.8 °F 43.0 °F 89% 29.99 in 10.0 mi West 3.5 mph - 0.01 in   Overcast
8:53 AM 46.0 °F 39.9 °F 39.0 °F 76% 30.01 in 10.0 mi NW 13.8 mph - 0.00 in Rain Light Rain
9:53 AM 45.0 °F 40.1 °F 37.9 °F 76% 30.02 in 10.0 mi NNW 9.2 mph - 0.02 in Rain Light Rain
10:53 AM 46.0 °F 41.0 °F 37.0 °F 71% 30.01 in 10.0 mi NNW 10.4 mph - 0.00 in   Overcast
11:53 AM 46.0 °F 39.9 °F 37.0 °F 71% 30.02 in 10.0 mi NW 13.8 mph - 0.00 in Rain Light Rain
12:53 PM 45.0 °F 39.3 °F 35.1 °F 68% 30.02 in 10.0 mi NW 11.5 mph - 0.01 in Rain Light Rain
1:53 PM 44.1 °F 38.1 °F 35.1 °F 71% 30.02 in 10.0 mi NW 11.5 mph - 0.00 in   Overcast
2:53 PM 44.1 °F 38.6 °F 32.0 °F 63% 30.02 in 10.0 mi NW 10.4 mph - N/A   Overcast
3:53 PM 44.1 °F 39.0 °F 32.0 °F 63% 30.06 in 10.0 mi NW 9.2 mph - N/A   Overcast
4:53 PM 43.0 °F 37.7 °F 30.9 °F 62% 30.05 in 10.0 mi NNW 9.2 mph - N/A   Overcast
5:53 PM 39.9 °F 32.9 °F 33.1 °F 77% 30.09 in 8.0 mi NW 11.5 mph - 0.02 in Rain Light Rain
6:53 PM 39.0 °F 34.8 °F 35.1 °F 86% 30.11 in 9.0 mi NW 5.8 mph - 0.06 in Rain Light Rain
7:53 PM 37.9 °F - 35.1 °F 89% 30.10 in 7.0 mi Calm Calm - 0.03 in Rain Light Rain
8:53 PM 37.0 °F 31.0 °F 34.0 °F 89% 30.17 in 5.0 mi WNW 8.1 mph - 0.07 in Rain Rain
9:28 PM 35.1 °F 30.1 °F 32.0 °F 89% 30.12 in 2.5 mi NNE 5.8 mph - 0.10 in Snow Light Snow
9:46 PM 34.0 °F 28.0 °F 32.0 °F 92% 30.09 in 4.0 mi NE 6.9 mph - 0.12 in Rain Light Rain
9:53 PM 34.0 °F 28.8 °F 30.9 °F 89% 30.10 in 7.0 mi NE 5.8 mph - 0.13 in Rain Light Rain
10:11 PM 34.0 °F 27.2 °F 32.0 °F 92% 30.11 in 10.0 mi North 8.1 mph - 0.00 in Rain Light Rain
10:26 PM 34.0 °F 28.0 °F 32.0 °F 92% 30.15 in 10.0 mi NW 6.9 mph - 0.01 in Rain Light Rain
10:53 PM 34.0 °F 27.2 °F 32.0 °F 92% 30.15 in 3.0 mi NNE 8.1 mph - 0.03 in Snow Light Snow
11:31 PM 34.0 °F 28.0 °F 30.9 °F 89% 30.13 in 4.0 mi North 6.9 mph - 0.02 in Snow Light Snow
11:43 PM 34.0 °F 28.8 °F 30.9 °F 89% 30.12 in 2.5 mi NNE 5.8 mph - 0.02 in Snow Light Snow
11:53 PM 33.1 °F 28.7 °F 30.9 °F 92% 30.15 in 3.0 mi North 4.6 mph - 0.02 in Snow Light Snow